Flag for U.S.A. Weather past 2 weeks in Portland, Maine, U.S.A.

Now
4 °F

Clear.


Feels Like: -3 °F
Forecast: 10 / 21 °F
Wind: 3 mph from West

Location: Portland - Portland International Jetport

Current Time: Jan 26, 2015 at 5:36:04 AM

Latest Report: Jan 26, 2015 at 4:51 AM


Visibility: 10 mi

Pressure: 30.13 "Hg

Humidity: 63%

Dew point: -6 °F

Location of PortlandLocation

Historic Weather in Portland — Graph

°F

Portland temperature yesterday

Maximum temperature yesterday: 37 °F (at 9:51 AM)
Minimum temperature yesterday: 11 °F (at 11:51 PM)
Average temperature yesterday: 27 °F

Past Weeks' High & Low Weather Summary

 TemperatureHumidityPressure
High49 °F (Jan 18, 9:51 PM)96% (Jan 16, 12:51 AM)30.68 "Hg (Jan 16, 12:51 AM)
Low-4 °F (Jan 14, 6:51 AM)24% (Jan 17, 3:51 PM)29.16 "Hg (Jan 24, 8:51 PM)
Average25 °F62%30.04 "Hg
* Reported Jan 11 3:51 AM — Jan 26 3:51 AM, Portland, Weather by CustomWeather, © 2014

Note: Actual official high and low records may vary slightly from our data, if they occured in-between our weather recording intervals... More about our weather records

Advertising

Portland weather history for previous 24 hours

 ConditionsComfort  
Time TempWeatherWind HumidityBarometerVisibility
3:51 AM
Jan 26
7 °FClear.5 mph57%30.11 "Hg10 mi
2:51 AM7 °FClear.No wind60%30.10 "Hg10 mi
1:51 AM8 °FClear.5 mph52%30.10 "Hg10 mi
12:51 AM10 °FClear.6 mph50%30.07 "Hg10 mi
11:51 PM
Jan 25
11 °FClear.6 mph48%30.05 "Hg10 mi
10:51 PM13 °FClear.12 mph44%30.02 "Hg10 mi
9:51 PM14 °FClear.9 mph47%30.00 "Hg10 mi
8:51 PM16 °FClear.9 mph47%29.95 "Hg10 mi
7:51 PM18 °FClear.10 mph47%29.91 "Hg10 mi
6:51 PM20 °FClear.7 mph43%29.88 "Hg10 mi
5:51 PM22 °FClear.14 mph42%29.82 "Hg10 mi
4:51 PM25 °FClear.12 mph40%29.75 "Hg10 mi
3:51 PM29 °FPassing clouds.13 mph34%29.70 "Hg10 mi
2:51 PM31 °FSunny.20 mph36%29.65 "Hg10 mi
1:51 PM32 °FSunny.16 mph36%29.60 "Hg10 mi
12:51 PM33 °FSunny.20 mph35%29.57 "Hg10 mi
11:51 AM34 °FPassing clouds.15 mph44%29.55 "Hg10 mi
10:51 AM33 °FPartly sunny.16 mph52%29.52 "Hg10 mi
9:51 AM37 °FMore clouds than sun.14 mph65%29.48 "Hg10 mi
8:51 AM35 °FSunny.12 mph67%29.43 "Hg10 mi
7:51 AM33 °FPassing clouds.9 mph72%29.41 "Hg10 mi
6:51 AM33 °FPassing clouds.12 mph70%29.38 "Hg10 mi
5:51 AM33 °FPassing clouds.14 mph70%29.36 "Hg10 mi
Weather by CustomWeather, © 2014

See weather overviewHow to use our weather pages